FW9150 Weather Reports


time (UTC)temp
C
wind
direction
speed
KPH
gust
KPH
rain 1hr
cm
rain 24hr
cm
rain mn
cm
humidity
%
barometer
mb
20260905001919 13 180 0.0 0.0 0.00 0.00 0.00 64 1020.2
20260905000916 13 172 0.0 1.6 0.00 0.00 0.00 64 1020.3
20260904235919 13 199 3.2 4.8 0.00 0.00 0.00 66 1020.3
20260904234918 13 157 3.2 6.4 0.00 0.00 0.00 67 1020.2
20260904233016 13 225 1.6 4.8 0.00 0.00 0.00 66 1020.3
20260904232017 13 166 1.6 3.2 0.00 0.00 0.00 65 1020.1
20260904231116 13 157 3.2 6.4 0.00 0.00 0.00 67 1020.2
20260904230119 13 254 0.0 0.0 0.00 0.00 0.00 67 1020.1
20260904225216 13 225 0.0 3.2 0.00 0.00 0.00 69 1020.3
20260904223319 13 205 0.0 3.2 0.00 0.00 0.00 70 1020.3
20260904222318 13 242 3.2 6.4 0.00 0.00 0.00 70 1020.3
20260904221317 13 113 0.0 4.8 0.00 0.00 0.00 69 1020.1
20260904215417 13 261 1.6 6.4 0.00 0.00 0.00 71 1020.1
20260904214417 13 195 1.6 4.8 0.00 0.00 0.00 70 1020.1
20260904213419 13 247 3.2 6.4 0.00 0.00 0.00 72 1020.1
20260904212417 13 186 3.2 8.0 0.00 0.00 0.00 71 1019.9
20260904211416 13 198 3.2 9.7 0.00 0.00 0.00 71 1020.1
20260904210418 13 228 1.6 3.2 0.00 0.00 0.00 71 1020.1
20260904205517 13 214 0.0 3.2 0.00 0.00 0.00 72 1020.1
20260904204517 13 257 0.0 0.0 0.00 0.00 0.00 73 1020.0
20260904203519 13 247 1.6 3.2 0.00 0.00 0.00 71 1019.9
20260904202517 13 260 0.0 3.2 0.00 0.00 0.00 72 1019.9
20260904201519 13 151 0.0 3.2 0.00 0.00 0.00 71 1019.8
20260904200534 13 240 3.2 8.0 0.00 0.00 0.00 70 1019.7
20260904200417 13 234 3.2 6.4 0.00 0.00 0.00 70 1019.7
20260904195420 13 183 4.8 9.7 0.00 0.00 0.00 71 1019.7
20260904193518 13 180 0.0 0.0 0.00 0.00 0.00 71 1019.7
20260904192517 13 173 4.8 8.0 0.00 0.00 0.00 70 1019.9
20260904191615 13 237 3.2 6.4 0.00 0.00 0.00 68 1019.8
20260904190618 13 175 6.4 16.1 0.00 0.00 0.00 68 1019.8
20260904185632 13 225 3.2 6.4 0.00 0.00 0.00 68 1019.7
20260904183719 13 187 1.6 4.8 0.00 0.00 0.00 69 1019.7
20260904182717 13 181 3.2 8.0 0.00 0.00 0.00 67 1019.7
20260904181717 13 163 1.6 3.2 0.00 0.00 0.00 67 1019.7
20260904175716 13 227 8.0 12.9 0.00 0.00 0.00 67 1019.7
20260904173717 12 159 4.8 8.0 0.00 0.00 0.00 69 1019.5
20260904171716 12 203 1.6 6.4 0.00 0.00 0.00 69 1019.2
20260904170717 12 229 3.2 6.4 0.00 0.00 0.00 68 1019.2
20260904165717 12 199 1.6 9.7 0.00 0.00 0.00 69 1019.2
20260904164719 12 205 0.0 0.0 0.00 0.00 0.00 69 1019.1
20260904161816 12 214 3.2 4.8 0.00 0.00 0.00 69 1018.8
20260904155816 11 150 1.6 3.2 0.00 0.00 0.00 68 1018.8
20260904153919 11 157 0.0 0.0 0.00 0.00 0.00 69 1018.7
20260904152917 11 192 1.6 3.2 0.00 0.00 0.00 70 1018.9
20260904151917 11 182 0.0 3.2 0.00 0.00 0.00 70 1018.8
20260904150917 11 165 3.2 6.4 0.00 0.00 0.00 70 1018.7
20260904145917 11 209 1.6 4.8 0.00 0.00 0.00 69 1018.7
20260904144919 11 179 3.2 6.4 0.00 0.00 0.00 68 1018.6
20260904144016 11 184 0.0 3.2 0.00 0.00 0.00 68 1018.6
20260904142016 11 178 6.4 11.3 0.00 0.00 0.00 68 1018.3
20260904141017 11 177 4.8 8.0 0.00 0.00 0.00 68 1018.4
20260904140019 11 212 1.6 3.2 0.00 0.00 0.00 67 1018.3
20260904134018 11 181 1.6 4.8 0.00 0.00 0.00 67 1018.3
20260904133017 11 170 3.2 4.8 0.00 0.00 0.00 67 1018.0
20260904132018 11 157 1.6 3.2 0.00 0.00 0.00 67 1018.0
20260904130116 11 177 6.4 9.7 0.00 0.00 0.00 67 1017.9
20260904124117 11 180 0.0 1.6 0.00 0.00 0.00 66 1017.8
20260904123116 11 167 3.2 3.2 0.00 0.00 0.00 68 1017.8
20260904122116 11 168 3.2 4.8 0.00 0.00 0.00 68 1017.8
20260904121120 11 180 4.8 6.4 0.00 0.00 0.00 67 1017.8
20260904120217 11 180 3.2 4.8 0.00 0.00 0.00 68 1017.8
20260904115219 11 180 0.0 4.8 0.00 0.00 0.00 67 1017.6
20260904114316 11 180 0.0 1.6 0.00 0.00 0.00 67 1017.8
20260904112318 11 180 0.0 1.6 0.00 0.00 0.00 65 1017.8
20260904111335 11 162 0.0 0.0 0.00 0.00 0.00 65 1017.9
20260904110317 11 163 0.0 1.6 0.00 0.00 0.00 64 1017.8
20260904105317 11 172 0.0 0.0 0.00 0.00 0.00 64 1017.7
20260904104317 11 180 0.0 0.0 0.00 0.00 0.00 63 1017.6
20260904103318 11 180 0.0 0.0 0.00 0.00 0.00 64 1017.6
20260904102415 11 180 0.0 0.0 0.00 0.00 0.00 63 1017.6
20260904101433 11 200 0.0 3.2 0.00 0.00 0.00 63 1017.4
20260904100517 11 225 0.0 1.6 0.00 0.00 0.00 64 1017.5
20260904095516 11 170 1.6 3.2 0.00 0.00 0.00 63 1017.4
20260904094518 11 225 0.0 3.2 0.00 0.00 0.00 64 1017.4
20260904092616 12 180 0.0 0.0 0.00 0.00 0.00 65 1017.5
20260904091617 12 201 0.0 0.0 0.00 0.00 0.00 64 1017.6
20260904090616 12 180 0.0 0.0 0.00 0.00 0.00 63 1017.6
20260904085616 12 173 3.2 4.8 0.00 0.00 0.00 64 1017.6
20260904084619 12 184 3.2 6.4 0.00 0.00 0.00 62 1017.6
20260904083616 12 169 3.2 4.8 0.00 0.00 0.00 63 1017.6
20260904081617 12 180 1.6 6.4 0.00 0.00 0.00 62 1017.6
20260904080617 12 173 4.8 8.0 0.00 0.00 0.00 64 1017.9
20260904075616 12 179 3.2 6.4 0.00 0.00 0.00 63 1017.7
20260904074617 12 172 4.8 8.0 0.00 0.00 0.00 64 1017.9
20260904073617 12 180 3.2 3.2 0.00 0.00 0.00 65 1017.9
20260904072619 12 167 6.4 8.0 0.00 0.00 0.00 64 1017.9
20260904070618 12 180 0.0 3.2 0.00 0.00 0.00 62 1018.2
20260904065715 12 180 0.0 0.0 0.00 0.00 0.00 62 1018.2
20260904064813 12 180 0.0 0.0 0.00 0.00 0.00 60 1018.2
20260904063816 12 202 0.0 0.0 0.00 0.00 0.00 60 1018.3
20260904062815 12 202 0.0 0.0 0.00 0.00 0.00 59 1018.4
20260904061914 12 202 0.0 0.0 0.00 0.00 0.00 59 1018.4
20260904055914 12 225 0.0 0.0 0.00 0.00 0.00 60 1018.5
20260904055013 12 225 0.0 0.0 0.00 0.00 0.00 60 1018.6
20260904054014 12 225 0.0 0.0 0.00 0.00 0.00 59 1018.6
20260904053113 12 225 0.0 0.0 0.00 0.00 0.00 59 1018.5
20260904052113 12 225 0.0 0.0 0.00 0.00 0.00 59 1018.7
20260904051114 12 180 0.0 0.0 0.00 0.00 0.00 60 1018.8
20260904050213 11 180 0.0 0.0 0.00 0.00 0.00 60 1018.8
20260904045215 11 180 0.0 0.0 0.00 0.00 0.00 59 1018.8
20260904044213 11 180 0.0 0.0 0.00 0.00 0.00 61 1018.7
20260904042214 11 157 0.0 0.0 0.00 0.00 0.00 61 1018.7
20260904041213 11 157 0.0 0.0 0.00 0.00 0.00 61 1018.6
20260904040213 11 157 0.0 0.0 0.00 0.00 0.00 60 1018.5
20260904035214 12 157 0.0 0.0 0.00 0.00 0.00 59 1018.5
20260904034213 12 157 0.0 0.0 0.00 0.00 0.00 60 1018.5
20260904032214 12 157 0.0 3.2 0.00 0.00 0.00 60 1018.4
20260904030314 12 157 0.0 0.0 0.00 0.00 0.00 59 1018.5
20260904025313 12 157 0.0 0.0 0.00 0.00 0.00 60 1018.4
20260904024314 12 157 0.0 0.0 0.00 0.00 0.00 60 1018.5
20260904023314 13 158 1.6 4.8 0.00 0.00 0.00 60 1018.3
20260904022412 13 157 0.0 3.2 0.00 0.00 0.00 58 1018.5
20260904021430 13 194 0.0 4.8 0.00 0.00 0.00 58 1018.6
20260904015515 13 157 0.0 1.6 0.00 0.00 0.00 60 1018.7
20260904014513 13 217 1.6 4.8 0.00 0.00 0.00 59 1018.6
20260904013515 14 165 0.0 3.2 0.00 0.00 0.00 59 1018.6
20260904011514 14 174 0.0 4.8 0.00 0.00 0.00 57 1018.7
20260904010514 14 169 0.0 1.6 0.00 0.00 0.00 58 1018.8
20260904005529 14 225 0.0 1.6 0.00 0.00 0.00 59 1018.8
20260904004513 15 211 0.0 0.0 0.00 0.00 0.00 58 1018.8
20260904003528 15 165 3.2 6.4 0.00 0.00 0.00 57 1018.9
20260904002613 15 214 4.8 8.0 0.00 0.00 0.00 55 1019.0